This is the latest recevied weather packets stored in our database for station/object SR9WXM. If no packets are shown the sender has not sent any weather packets the latest 1 day(s).
| Time | Temp. | Humidity | Pressure | Rain* | Wind** | Luminosity | Snow |
|---|---|---|---|---|---|---|---|
| 1777997469 | 17.78° C | 100% | 0 hPa | - | 4.92 m/s, 207° | - | - |
| 1777997229 | 17.22° C | 100% | 0 hPa | - | 5.36 m/s, 211° | - | - |
| 1777996987 | 17.22° C | 100% | 0 hPa | - | 5.36 m/s, 208° | - | - |
| 1777996747 | 17.22° C | 100% | 0 hPa | - | 4.02 m/s, 214° | - | - |
| 1777996507 | 17.22° C | 100% | 0 hPa | - | 5.81 m/s, 196° | - | - |
| 1777996267 | 17.78° C | 100% | 0 hPa | - | 6.71 m/s, 205° | - | - |
| 1777996027 | 17.78° C | 100% | 0 hPa | - | 5.81 m/s, 203° | - | - |
| 1777995786 | 17.78° C | 100% | 0 hPa | - | 6.71 m/s, 205° | - | - |
| 1777995546 | 17.78° C | 100% | 0 hPa | - | 6.26 m/s, 199° | - | - |
| 1777995306 | 17.78° C | 100% | 0 hPa | - | 6.26 m/s, 204° | - | - |
| 1777995066 | 17.78° C | 100% | 0 hPa | - | 8.94 m/s, 195° | - | - |
| 1777994826 | 17.78° C | 100% | 0 hPa | - | 8.05 m/s, 191° | - | - |
| 1777994584 | 18.33° C | 100% | 0 hPa | - | 8.94 m/s, 186° | - | - |
| 1777994342 | 18.33° C | 100% | 0 hPa | - | 8.05 m/s, 202° | - | - |
| 1777994102 | 18.33° C | 100% | 0 hPa | - | 8.05 m/s, 198° | - | - |
| 1777993861 | 18.89° C | 100% | 0 hPa | - | 6.26 m/s, 211° | - | - |
| 1777993621 | 18.89° C | 100% | 0 hPa | - | 4.47 m/s, 219° | - | - |
| 1777993412 | 18.33° C | 100% | 0 hPa | - | 4.92 m/s, 208° | - | - |
| 1777993379 | 18.33° C | 100% | 0 hPa | - | 4.92 m/s, 208° | - | - |
| 1777993139 | 18.33° C | 100% | 0 hPa | - | 5.36 m/s, 209° | - | - |
| 1777992899 | 18.33° C | 100% | 0 hPa | - | 6.71 m/s, 202° | - | - |
| 1777992659 | 18.33° C | 100% | 0 hPa | - | 5.36 m/s, 213° | - | - |
| 1777992419 | 18.33° C | 100% | 0 hPa | - | 5.81 m/s, 203° | - | - |
| 1777992177 | 18.33° C | 100% | 0 hPa | - | 6.26 m/s, 205° | - | - |
| 1777991937 | 18.33° C | 100% | 0 hPa | - | 7.6 m/s, 192° | - | - |
* Rain since midnight (hover to see other rain measurements)
** Current wind speed in m/s (hover to see current wind gust speed)